Location: Innerarity Island Observatory
(30.3139°N, 87.4867°W)
Time: 19:20:42
(UTC-05:00)

OPAL - Visible Passes

Search period start: 01 October 2014 00:00
Search period end: 11 October 2014 00:00
Orbit: 744 x 796 km, 100.2° (Epoch: 01 October)

Date Brightness Start Highest point End Pass type
(mag) Time Alt. Az. Time Alt. Az. Time Alt. Az.
01 Oct 9.1 04:20:57 10° SE 04:25:36 34° ENE 04:30:17 10° N visible
01 Oct 8.7 06:00:29 10° SSW 06:04:27 22° W 06:08:26 10° NW visible
02 Oct 10.3 03:47:48 10° E 03:50:44 15° ENE 03:53:40 10° NNE visible
02 Oct 7.6 05:24:03 10° S 05:29:06 52° WSW 05:34:12 10° NNW visible
02 Oct 10.8 19:21:59 10° NW 19:23:02 11° WNW 19:24:04 10° WNW visible
03 Oct 7.9 04:48:47 10° SSE 04:53:56 66° ENE 04:59:06 10° N visible
04 Oct 9.4 04:14:33 10° SE 04:18:56 28° ENE 04:23:18 10° N visible
04 Oct 8.4 05:53:17 10° SSW 05:57:39 27° W 06:02:03 10° NW visible
05 Oct 10.5 03:42:06 10° E 03:44:06 12° ENE 03:46:06 10° NE visible
05 Oct 7.5 05:17:11 10° S 05:22:21 66° WSW 05:27:33 10° NNW visible
05 Oct 10.5 19:14:01 10° NW 19:16:23 13° WNW 19:18:44 10° W visible
06 Oct 8.3 04:42:11 10° SSE 04:47:13 52° ENE 04:52:16 10° N visible
07 Oct 9.8 04:08:15 10° ESE 04:12:15 23° ENE 04:16:15 10° NNE visible
07 Oct 8.1 05:46:11 10° SSW 05:50:52 34° W 05:55:34 10° NW visible
08 Oct 7.4 05:10:24 10° SSE 05:15:36 82° WSW 05:20:50 10° NNW visible
08 Oct 10.3 19:06:37 10° NNW 19:09:43 17° WNW 19:12:48 10° WSW visible
09 Oct 8.7 04:35:38 10° SE 04:40:31 42° ENE 04:45:23 10° N visible
09 Oct 8.9 06:16:00 10° SW 06:19:27 18° W 06:22:55 10° NW visible
10 Oct 10.0 04:02:04 10° ESE 04:05:35 19° ENE 04:09:05 10° NNE visible
10 Oct 7.9 05:39:10 10° S 05:44:05 42° WSW 05:49:00 10° NNW visible
